Location: Janikowo
(52.7550°N, 18.1104°E)
Time: 22:22:50
(UTC+01:00)

ISS - Visible Passes

Search period start: 19 January 2018 00:00
Search period end: 29 January 2018 00:00
Orbit: 402 x 407 km, 51.6° (Epoch: 20 January)

Date Brightness Start Highest point End Pass type
(mag) Time Alt. Az. Time Alt. Az. Time Alt. Az.
26 Jan -1.1 18:55:45 10° SSW 18:56:11 12° SSW 18:56:11 12° SSW visible
27 Jan -1.7 18:04:14 10° S 18:06:10 15° SE 18:06:11 15° SE visible
28 Jan -2.2 18:46:46 10° SW 18:48:46 27° SSW 18:48:46 27° SSW visible
